GFSNW_850_spd_132.txt.gz
Wind_Speed
24 21 20 20 21 20 20 18 3 25 25 6 4 4 5 3 5 6 2 4 5 4 3 4 2 6 3 3 3 3 1 1 5 11 15 13 8 10 4 3 4 1 2 4
24 24 25 23 26 26 27 15 5 25 29 6 5 2 3 6 2 0 1 3 6 3 7 1 5 4 3 4 2 6 5 2 4 6 2 4 5 8 8 3 2 4 4 5
25 27 27 30 29 28 27 12 4 8 20 9 6 6 6 5 7 10 9 6 4 2 3 4 3 1 3 2 4 7 3 3 5 4 3 2 5 6 1 4 0 2 4 4
26 28 30 30 34 32 29 15 6 13 6 16 11 7 4 8 7 9 12 4 9 5 6 5 5 5 3 1 6 3 4 5 3 6 8 9 13 15 11 10 10 6 5 4
33 30 28 36 37 34 35 12 7 12 4 19 18 11 8 14 6 7 7 10 8 8 11 8 9 6 5 6 6 7 4 4 2 17 11 11 15 16 15 15 5 3 3 4
35 33 28 35 41 40 18 28 21 17 11 9 13 17 16 6 11 13 24 13 6 13 16 21 18 7 6 6 4 7 5 3 2 10 11 7 7 10 11 4 4 6 7 6
41 39 35 37 39 45 29 31 22 7 4 10 14 12 18 16 18 16 8 19 13 11 11 8 7 3 3 4 11 13 5 6 3 3 3 4 6 4 6 10 7 6 4 11
42 42 42 38 38 42 45 23 28 16 5 11 13 15 7 21 28 22 23 31 17 12 10 3 2 4 5 4 10 9 10 4 4 5 5 4 3 1 2 4 4 7 11 10
43 42 44 39 38 41 43 42 23 26 11 15 14 11 22 7 5 3 14 23 17 16 3 2 5 4 4 4 4 11 7 7 6 1 3 3 3 2 6 4 3 12 16 18
40 38 41 39 39 39 43 39 42 21 15 20 17 12 11 12 8 1 1 7 6 9 2 2 4 4 6 5 5 2 7 5 14 7 4 5 2 2 5 2 3 9 25 27
42 41 40 40 40 40 41 44 42 42 8 10 27 33 17 5 19 5 5 4 0 3 4 3 4 4 5 5 9 4 8 6 6 4 3 9 3 1 5 2 8 10 18 17
45 46 45 43 44 43 43 40 42 39 28 6 25 25 24 27 32 17 13 5 7 12 3 4 4 3 3 4 7 2 6 5 4 3 4 3 3 4 5 8 12 9 14 16
44 45 45 45 46 44 48 43 31 33 32 26 38 27 21 30 35 25 16 10 14 11 10 6 1 3 3 2 4 3 4 4 3 4 3 7 9 10 10 9 8 10 9 14
48 50 50 49 48 48 46 49 47 39 15 7 7 22 47 29 24 33 33 25 17 14 12 4 2 2 1 3 2 3 4 6 6 2 4 7 8 10 11 11 12 12 12 14
51 53 53 52 52 50 45 46 48 44 35 5 9 12 21 25 30 27 32 26 27 17 6 2 3 4 2 2 2 2 3 5 4 5 16 6 13 18 14 13 14 13 18 21
60 60 60 58 53 49 44 34 44 52 40 7 3 12 9 18 26 25 24 24 19 10 4 6 7 5 6 3 2 2 3 9 9 6 21 9 20 21 16 20 19 19 19 19
58 63 67 67 58 58 66 23 36 59 40 16 2 3 12 17 21 14 15 18 11 8 9 7 6 6 8 2 3 10 9 9 10 16 22 16 24 17 19 20 19 18 16 17
63 64 59 64 69 55 61 31 27 56 36 8 2 3 7 14 7 5 8 6 13 10 9 5 4 5 3 2 4 17 16 15 16 20 2 11 22 20 21 18 20 21 21 18
51 70 64 53 64 45 45 46 35 52 16 8 4 3 3 16 10 10 7 5 1 1 2 3 5 1 3 5 18 22 22 16 16 14 7 19 23 24 23 23 24 23 20 20
80 77 46 13 30 39 48 43 26 20 16 14 3 9 3 18 11 2 6 6 3 2 4 5 2 3 4 12 23 22 20 13 19 20 20 22 22 26 27 27 24 20 20 18
42 31 36 68 62 41 9 7 6 9 3 6 7 19 12 15 5 3 5 3 2 2 3 4 2 3 5 18 21 18 17 13 17 14 15 21 24 28 26 23 19 17 17 16
43 44 41 26 8 5 6 3 3 3 5 6 12 19 27 11 10 4 2 2 2 4 3 3 3 3 17 24 23 21 18 19 18 13 14 19 20 22 21 20 19 16 15 15
29 14 7 5 6 7 5 4 1 3 4 16 24 11 10 7 4 5 3 3 4 1 2 3 3 9 23 25 25 21 17 17 15 15 15 17 20 19 18 18 18 16 16 16
12 8 7 4 3 3 2 2 4 6 26 32 27 10 5 5 4 2 4 3 2 1 1 4 2 21 27 26 24 23 22 18 16 18 17 17 16 17 16 14 15 16 17 17
8 7 5 4 3 5 5 9 19 27 33 30 14 7 6 2 3 1 3 3 3 5 4 2 16 28 28 25 24 25 24 20 18 16 16 15 15 15 16 14 13 14 16 18
7 9 4 3 4 8 16 24 24 32 30 17 8 4 4 2 3 3 5 5 5 3 2 11 28 30 26 25 22 19 21 20 19 18 16 15 15 15 14 15 15 15 15 16
6 5 11 8 8 9 13 21 18 20 13 2 4 3 4 3 2 2 2 3 1 8 12 19 26 26 24 22 20 18 17 17 17 16 15 14 15 15 16 17 18 17 15 13

GFSNW_850_spd_135.txt.gz
Wind_Speed
26 24 22 23 20 21 19 18 2 22 23 6 6 6 4 2 4 2 1 1 4 4 2 2 1 6 5 3 2 2 2 3 5 5 14 10 4 2 3 3 3 1 3 5
28 27 24 25 25 27 27 14 5 24 28 4 4 1 2 2 2 2 3 4 5 2 6 1 6 4 5 7 5 5 4 1 4 8 1 5 5 3 3 2 2 2 2 4
28 27 28 27 29 31 27 10 4 6 21 5 5 4 4 3 7 7 4 2 2 2 4 5 3 4 3 2 3 5 4 4 6 9 6 1 4 7 5 3 2 5 6 5
28 28 28 31 32 34 29 12 6 9 7 10 5 6 5 10 5 5 5 2 7 7 5 3 5 5 3 2 5 4 4 6 5 6 7 7 11 14 14 11 12 6 6 6
29 32 30 31 34 33 32 10 7 8 1 17 17 12 6 7 7 4 5 6 6 7 7 8 5 4 4 6 2 3 1 4 3 4 8 12 18 16 18 14 15 14 12 12
33 34 28 32 35 37 25 19 18 12 8 12 11 16 8 7 9 7 13 6 5 9 10 16 22 22 15 7 6 6 4 3 1 12 8 11 10 16 14 4 5 9 10 6
33 35 33 33 36 43 34 31 15 9 3 9 14 9 19 10 11 7 2 14 8 12 12 14 6 10 13 11 9 12 6 4 3 7 5 11 7 3 4 7 6 6 3 5
35 34 34 36 35 48 46 24 28 14 5 12 8 10 8 17 21 19 18 26 18 11 5 2 2 3 4 6 8 9 10 5 2 4 8 9 8 3 3 4 5 6 8 8
37 36 36 39 40 43 46 49 17 20 8 10 14 15 15 5 5 1 11 22 19 11 4 3 5 4 3 3 4 7 10 11 8 3 5 3 4 3 4 4 4 10 14 16
40 40 40 40 44 40 43 43 51 12 7 12 22 8 10 13 6 2 2 1 4 17 3 3 3 4 4 4 4 2 3 1 9 6 5 6 3 4 1 3 4 8 19 24
39 39 42 43 43 41 39 41 43 35 3 15 26 21 20 15 13 4 4 3 1 3 3 3 3 4 5 4 4 5 5 6 3 3 4 8 4 1 5 2 2 6 14 19
38 39 43 45 51 50 39 32 36 38 20 6 19 20 25 24 14 4 5 3 4 7 2 2 3 4 2 5 4 5 5 5 2 5 4 0 4 4 3 7 8 8 15 18
37 39 43 42 42 46 41 36 24 29 21 14 22 24 25 22 26 17 8 7 14 7 8 6 4 4 3 3 7 3 1 4 3 1 4 5 6 4 5 9 8 11 10 15
38 38 40 37 34 41 40 35 29 28 10 7 15 11 25 32 26 31 21 24 26 21 16 5 2 3 5 3 4 4 3 8 6 3 3 3 9 11 10 11 11 11 11 13
38 39 39 41 39 38 37 34 31 28 25 3 12 27 27 19 32 37 34 28 28 19 5 3 4 5 2 3 1 3 10 5 5 6 13 6 5 20 16 12 10 10 14 18
40 39 40 39 39 38 33 20 34 37 31 13 3 6 13 29 33 26 27 33 28 20 7 5 6 7 5 3 3 5 14 12 14 3 11 8 11 17 15 11 12 12 16 21
42 42 40 40 39 42 46 9 8 32 30 10 4 5 5 14 15 16 15 22 16 10 6 5 5 5 11 3 3 5 12 11 12 12 19 11 20 13 18 15 16 17 20 22
47 44 43 42 40 39 43 21 7 14 40 10 3 2 3 13 6 5 11 8 11 8 5 4 6 6 5 4 3 12 15 13 14 19 9 5 19 17 18 18 22 23 23 21
49 47 41 37 34 34 42 43 15 34 20 7 5 5 4 11 6 6 5 4 2 4 3 4 6 3 5 5 9 18 22 16 17 13 5 12 22 23 21 24 23 23 22 20
57 50 33 17 34 36 36 19 10 13 15 6 4 9 2 12 5 3 6 5 2 2 4 5 3 4 14 10 11 13 20 13 19 18 16 20 21 23 25 25 23 20 19 19
53 25 17 27 44 29 18 10 8 8 6 12 10 14 6 10 2 3 4 3 3 3 4 4 2 3 6 16 16 14 19 14 12 10 13 18 21 25 27 24 20 18 15 18
31 32 42 47 22 9 8 6 4 5 7 10 14 12 14 6 4 4 4 2 1 4 2 2 3 3 11 21 20 20 17 11 13 9 8 16 19 23 23 21 19 17 15 16
62 34 8 10 6 6 7 9 3 4 7 13 19 11 8 6 2 3 2 3 4 2 2 3 4 2 14 22 24 20 16 14 12 11 10 14 17 20 19 18 16 15 15 16
11 6 5 3 1 3 4 4 5 8 22 34 33 10 6 6 3 2 3 3 2 2 2 5 3 13 21 25 24 22 20 16 13 13 14 16 16 17 14 12 13 16 16 17
7 6 4 2 1 2 7 13 18 24 35 35 16 7 5 2 4 2 2 2 4 5 4 3 6 20 25 27 23 21 20 18 14 15 15 14 13 13 14 14 13 15 15 17
6 8 3 5 6 6 15 24 28 34 35 26 9 3 3 2 4 3 5 5 5 3 1 3 18 24 25 23 21 20 19 18 16 15 14 14 14 13 13 16 15 15 15 17
5 4 10 6 7 10 14 24 26 34 25 3 3 4 5 3 2 2 3 4 1 2 4 13 23 25 22 20 20 18 18 16 16 17 16 16 16 16 15 15 16 15 14 14

GFSNW_850_spd_138.txt.gz
Wind_Speed
25 25 21 20 20 18 15 16 1 17 27 7 4 5 5 1 2 0 2 2 1 4 4 2 2 5 3 1 2 2 2 3 3 7 6 5 5 2 3 3 1 3 2 5
27 25 25 25 23 24 22 11 4 21 26 7 5 1 1 2 2 1 1 3 3 2 6 1 5 3 5 3 2 1 1 2 4 5 2 4 4 2 4 2 2 4 2 5
30 32 27 26 26 28 24 8 3 5 16 2 6 5 3 5 4 3 1 0 1 2 3 2 2 2 2 2 4 4 1 4 6 7 7 4 4 3 4 4 3 4 10 17
30 31 31 28 28 30 25 9 5 9 6 11 4 6 7 7 5 5 5 3 5 5 2 2 5 4 3 2 4 4 3 5 4 6 7 7 13 8 9 14 14 12 16 17
30 32 30 30 31 32 29 11 5 6 0 18 12 8 6 6 5 4 4 4 4 5 6 8 2 1 2 5 1 4 2 3 3 4 7 10 15 13 15 21 18 15 17 23
28 30 33 31 33 36 14 21 11 6 7 7 10 12 5 7 9 7 9 3 3 3 7 14 15 16 16 11 4 4 2 3 2 12 5 8 11 9 15 6 6 5 8 8
29 28 29 34 34 38 26 20 17 7 2 5 11 6 16 7 10 6 1 9 5 2 7 11 11 11 13 14 12 14 6 4 2 7 3 7 8 4 6 6 8 7 1 3
30 31 31 35 35 36 39 25 10 8 3 10 5 7 8 16 17 10 11 19 10 6 11 4 4 2 3 6 9 11 9 4 2 4 6 11 11 9 5 4 7 5 7 7
26 27 29 31 32 31 34 35 31 7 5 9 14 13 13 4 4 2 9 22 16 8 3 2 3 4 3 2 4 3 6 5 4 3 6 6 6 3 0 3 6 2 8 11
28 29 29 30 30 35 33 31 38 24 7 6 21 7 11 11 6 2 3 3 4 13 3 4 4 3 3 3 3 4 3 2 8 9 9 6 5 5 3 2 6 1 10 19
31 31 32 32 32 32 35 33 33 28 6 8 15 18 13 13 14 4 6 3 0 3 4 3 4 3 4 2 4 4 6 5 4 3 5 8 2 3 5 2 1 1 7 15
34 33 33 34 34 34 34 27 32 30 15 7 18 14 10 16 20 19 5 1 2 4 2 1 1 2 1 5 3 5 4 7 4 6 5 3 5 6 8 6 5 3 8 12
35 34 35 35 35 36 35 29 29 27 15 9 17 26 21 12 15 17 7 3 6 5 4 3 2 4 3 3 5 3 2 4 3 2 4 8 13 11 9 8 5 3 6 10
34 33 34 34 34 36 37 23 31 31 8 5 14 14 14 19 16 15 16 14 11 12 10 4 3 3 6 3 4 4 5 5 5 5 5 5 15 15 12 10 8 7 8 11
33 32 32 31 32 34 32 40 28 31 25 4 2 10 18 16 17 27 33 26 22 10 3 4 4 4 2 3 1 4 9 6 5 7 4 7 5 16 17 12 12 11 10 13
32 31 29 28 30 33 31 12 31 28 23 3 2 6 8 8 29 30 25 31 25 18 7 5 6 13 6 3 4 5 24 23 22 7 12 14 4 11 14 14 11 9 11 14
31 30 28 28 28 31 20 6 8 32 21 3 3 5 11 14 12 23 24 23 14 19 11 7 9 7 12 3 8 4 11 17 16 16 11 9 14 10 15 13 10 12 14 18
32 29 27 28 26 28 20 8 15 24 24 5 2 3 3 9 6 7 12 11 18 11 10 5 6 7 6 5 10 19 20 15 13 16 15 6 13 12 18 16 14 19 20 20
32 29 26 24 22 14 28 15 11 26 11 10 5 3 3 11 6 7 7 8 4 8 4 5 8 3 6 7 14 18 19 18 16 18 9 8 15 22 23 18 19 21 21 20
37 33 18 8 14 16 24 14 4 5 13 7 5 7 4 9 7 6 8 7 3 3 5 6 4 5 20 20 12 9 16 18 18 19 14 14 18 22 23 21 21 20 19 20
37 13 10 17 30 14 8 6 6 6 5 10 12 19 5 9 3 3 7 2 3 2 3 4 3 4 8 29 26 18 17 19 14 10 6 11 18 24 23 23 22 20 18 19
29 26 28 32 12 6 5 4 6 7 7 9 12 13 7 7 5 2 4 2 1 4 3 2 3 4 12 18 24 20 20 17 14 11 8 14 17 18 22 23 21 19 17 16
43 25 10 11 8 5 9 8 4 5 8 14 26 8 10 6 4 1 1 4 4 3 1 4 4 3 6 11 19 22 18 14 15 13 9 13 17 18 20 20 17 16 15 15
13 7 6 5 5 5 4 6 6 7 12 25 32 12 5 5 2 2 2 3 2 1 3 5 3 8 12 19 24 24 21 16 13 11 12 13 15 17 16 14 14 15 15 15
5 6 5 5 8 4 4 8 13 13 28 32 20 9 5 1 2 2 2 2 4 4 4 3 5 11 20 25 24 20 20 15 13 13 15 15 15 15 15 14 12 13 14 15
6 4 4 6 7 4 9 11 13 31 32 30 9 4 3 3 3 3 6 4 6 3 2 5 5 17 22 23 20 18 17 16 14 14 14 13 12 11 12 14 13 14 14 15
3 2 7 4 8 7 10 17 22 35 26 3 4 5 6 3 2 3 4 4 2 2 3 4 12 19 22 20 19 18 17 16 15 14 14 13 13 13 13 13 14 14 13 14

GFSNW_850_spd_141.txt.gz
Wind_Speed
26 25 22 20 22 17 18 17 2 14 23 6 6 4 4 3 2 2 0 1 2 3 3 2 1 3 3 2 2 1 1 2 3 6 5 2 3 2 2 3 2 2 3 7
29 28 26 22 23 23 22 16 4 17 23 4 3 2 3 3 3 2 1 1 1 2 4 1 3 2 2 0 1 1 1 1 3 4 2 2 1 1 2 3 1 9 8 7
31 30 29 28 25 25 22 9 4 4 12 5 5 6 4 5 3 2 2 2 2 3 3 1 3 3 1 0 3 4 2 3 6 7 6 6 12 10 7 8 7 11 14 23
33 31 28 29 29 29 23 7 3 8 6 8 3 7 6 8 4 4 5 2 4 5 4 2 4 3 3 3 4 2 3 6 6 9 8 9 13 12 15 17 18 15 23 20
35 33 32 28 33 32 24 10 5 6 3 16 9 9 7 9 6 7 4 3 6 5 5 5 4 4 3 4 1 2 1 3 1 3 10 13 16 9 17 22 20 20 21 24
37 34 35 34 34 34 14 14 12 10 8 12 11 9 6 7 9 6 6 5 4 4 4 4 8 10 8 7 3 1 3 2 1 9 5 9 14 10 13 8 9 10 11 14
40 36 35 36 36 36 19 22 18 7 3 7 9 9 15 9 10 3 1 9 4 5 1 4 6 10 13 12 13 16 5 5 3 9 4 9 5 5 9 11 14 10 14 11
38 36 37 36 36 32 33 16 15 9 3 10 6 8 7 12 11 5 5 9 4 4 6 2 3 1 2 6 12 13 16 7 4 4 8 13 13 10 3 5 12 10 10 5
35 30 32 39 34 29 27 33 15 14 7 7 11 13 11 4 4 2 10 19 18 9 2 2 3 4 3 2 1 1 7 9 6 2 6 7 3 2 3 2 13 6 3 9
28 28 28 25 25 29 23 16 19 16 4 2 17 6 11 10 7 3 2 5 5 15 4 3 4 4 1 3 4 4 4 3 12 10 8 8 6 1 5 5 4 7 3 7
30 31 29 26 27 26 26 18 20 13 5 4 10 8 9 10 11 4 7 5 2 3 6 4 4 4 5 2 3 5 7 5 5 5 6 8 6 5 4 1 5 6 4 7
29 27 22 19 20 21 18 16 19 19 9 4 14 10 13 15 14 15 10 2 4 8 3 2 1 2 1 5 3 3 4 7 4 8 5 3 10 9 7 14 13 6 5 9
26 24 24 23 22 21 23 19 16 21 12 9 12 14 16 12 11 6 3 3 4 6 5 4 1 3 2 3 4 4 4 5 5 3 6 11 17 19 21 19 16 10 10 10
26 25 22 22 22 23 25 23 21 21 9 4 8 7 22 24 16 10 7 6 5 7 5 3 3 3 8 3 4 5 6 4 4 6 10 12 22 18 20 16 13 11 10 12
26 25 24 24 22 20 20 24 27 29 15 3 4 7 11 15 14 14 26 15 13 10 5 3 3 3 2 4 3 7 9 7 5 11 14 14 15 14 10 14 14 11 12 12
27 25 25 24 22 20 20 11 24 32 22 5 1 2 8 13 23 18 26 26 22 18 7 4 6 12 6 4 5 10 23 24 33 24 17 13 13 8 8 14 13 12 11 11
27 27 26 23 21 24 28 9 9 23 27 6 2 3 8 16 11 14 22 23 17 16 10 8 9 11 9 4 14 29 24 22 24 22 16 10 14 8 13 13 13 9 10 13
26 25 22 20 21 23 24 17 6 33 16 7 3 2 3 11 7 4 12 13 15 13 11 5 6 6 10 6 18 23 26 28 23 19 19 14 7 11 16 16 13 14 15 17
27 25 22 21 21 14 16 22 31 26 8 11 6 4 3 9 5 7 5 11 5 9 6 7 8 6 8 12 17 23 27 26 21 18 15 11 12 16 19 19 14 17 19 20
28 28 13 6 11 21 18 12 7 8 7 5 4 8 3 10 10 9 4 6 3 3 6 8 5 10 31 26 22 19 20 23 18 19 13 15 17 20 23 23 16 18 20 21
30 8 5 27 25 17 8 5 5 6 5 9 8 15 6 10 3 3 8 2 4 3 4 5 3 5 8 25 34 37 23 21 22 18 11 14 15 20 25 24 18 19 18 18
17 20 35 22 6 4 4 4 3 4 5 10 8 11 17 10 8 5 5 3 3 4 5 2 4 3 11 12 18 24 26 21 21 16 10 11 15 18 22 19 20 19 16 15
34 16 7 8 5 4 8 7 3 3 7 12 13 6 16 9 8 3 2 4 4 4 2 4 4 4 5 6 8 14 17 20 18 14 10 11 14 15 17 19 18 16 15 14
8 6 7 5 4 5 4 4 5 6 11 15 20 10 5 6 4 2 3 2 2 3 3 5 1 5 4 8 14 24 23 18 16 13 12 13 15 17 16 16 16 16 16 14
6 7 5 5 7 4 12 25 24 19 17 23 15 4 3 1 3 3 2 2 4 5 4 1 4 2 9 17 23 22 20 17 15 14 15 15 17 19 18 16 14 13 13 13
2 3 1 3 5 4 6 10 15 25 25 22 13 3 2 3 3 4 7 4 6 3 1 3 5 8 15 22 21 19 16 15 15 17 17 18 17 16 15 15 13 12 12 11
5 3 7 11 4 11 11 14 14 29 33 9 4 6 7 3 3 4 4 4 2 1 3 4 5 13 20 20 20 20 18 17 18 18 17 16 15 13 13 14 13 14 14 12

GFSNW_850_spd_144.txt.gz
Wind_Speed
34 31 27 24 22 23 22 17 5 18 29 8 4 8 11 6 9 3 2 1 2 4 4 5 3 5 2 5 5 3 2 2 8 11 8 6 9 11 9 6 7 5 5 12
35 33 30 27 27 29 27 10 5 20 30 6 6 1 5 5 6 6 3 2 1 2 3 3 4 5 2 2 2 2 4 4 5 6 6 6 6 2 3 6 6 14 13 10
37 36 33 29 28 29 25 10 4 5 17 7 8 7 10 9 3 5 4 4 3 3 3 1 5 6 3 3 3 5 1 7 9 10 7 6 11 13 12 13 8 15 19 25
42 37 34 32 30 30 24 10 6 10 10 8 7 14 14 15 7 5 5 4 7 6 5 7 6 7 5 3 3 4 4 8 11 13 14 14 15 15 17 19 20 20 26 24
40 38 39 37 33 32 26 10 6 8 4 25 18 13 13 14 11 11 8 8 9 11 11 9 6 8 7 6 4 7 5 6 3 6 14 16 18 14 19 23 22 23 27 28
37 38 41 38 39 38 14 18 10 10 10 15 15 14 11 13 14 6 6 12 7 10 10 3 3 5 4 4 6 8 7 7 6 11 8 10 14 15 17 16 15 14 17 16
44 38 42 39 37 43 14 22 13 7 5 11 14 13 16 13 17 7 9 7 9 4 5 2 3 7 10 13 15 17 9 11 8 8 10 11 1 2 10 14 18 19 19 20
44 45 45 40 40 34 26 26 15 10 4 10 10 9 15 14 12 9 5 6 6 8 5 3 5 5 5 10 18 17 18 12 7 7 10 15 18 10 6 11 13 12 9 10
42 45 44 42 40 36 34 27 22 11 10 11 15 14 18 8 10 8 8 5 8 4 4 4 5 5 3 5 6 4 14 14 9 9 7 10 2 2 4 6 14 7 7 6
39 44 42 41 39 38 36 30 26 11 5 7 13 13 15 9 9 4 6 8 7 12 6 6 6 6 4 6 8 7 7 9 14 13 11 9 7 3 3 6 2 3 5 4
42 42 43 43 39 34 34 25 20 19 4 7 6 5 8 10 12 5 9 7 4 8 8 5 5 5 7 6 9 11 10 7 6 8 9 11 5 6 5 4 2 5 11 6
51 43 41 45 39 29 25 20 14 11 10 7 15 13 10 9 11 11 11 1 10 9 7 6 3 5 3 8 6 12 9 10 6 6 5 3 6 14 12 8 16 18 15 9
35 32 30 30 29 26 24 20 21 14 8 6 10 10 14 14 11 13 9 5 4 6 1 2 1 7 2 6 9 10 8 10 7 9 8 17 21 21 17 13 15 12 11 10
32 31 29 27 26 24 22 19 16 13 8 5 5 13 14 17 15 13 9 4 6 5 4 6 4 4 5 6 7 8 8 5 8 13 18 22 18 20 17 11 14 10 9 9
30 29 27 24 23 23 20 14 15 14 7 3 3 7 15 18 22 21 16 9 8 7 5 4 4 5 6 11 11 12 17 15 11 11 14 17 19 14 11 14 10 9 11 11
26 26 24 24 23 25 21 6 16 17 16 7 3 5 10 18 19 20 22 15 13 13 7 8 7 10 7 7 13 17 20 19 20 22 22 20 19 15 12 8 8 10 11 11
23 22 22 22 23 23 9 8 7 26 17 6 3 4 6 13 15 14 15 13 12 12 7 7 13 12 9 7 17 18 21 22 26 27 20 13 14 8 10 9 11 11 10 11
23 22 20 21 20 18 14 7 8 25 13 7 3 3 7 16 9 8 13 11 12 9 13 12 13 10 11 7 15 20 26 27 27 26 21 19 9 9 11 13 14 13 13 14
24 23 21 20 16 11 11 16 6 21 7 9 6 7 5 13 11 8 8 8 4 8 6 12 7 10 10 13 21 25 23 24 23 13 15 13 13 13 15 16 15 14 15 16
26 27 15 7 16 17 15 15 21 11 7 6 5 14 5 13 14 10 7 5 4 4 8 8 6 14 35 35 36 34 29 22 15 15 13 15 15 17 18 18 15 14 17 18
28 10 5 14 27 15 10 6 8 6 6 8 10 17 8 10 7 5 9 2 3 4 5 6 5 7 16 31 38 40 36 26 23 19 12 13 12 18 19 17 16 14 17 19
18 14 28 25 9 6 5 4 4 5 5 11 13 13 13 7 5 4 7 3 3 6 6 4 4 6 16 14 15 19 20 23 22 17 14 13 12 14 16 17 16 15 17 18
28 10 7 6 4 5 6 6 4 4 8 11 14 9 14 7 5 3 4 5 5 1 4 4 4 3 3 5 7 7 9 15 18 15 15 11 12 13 16 19 17 15 16 16
6 5 5 5 5 4 3 5 6 5 9 17 19 12 7 6 5 3 5 4 2 4 3 5 3 2 6 4 4 7 14 18 19 16 12 12 13 15 16 14 16 17 17 16
4 4 5 6 4 8 12 13 13 10 16 18 10 4 5 6 5 4 3 4 5 5 4 1 2 7 4 5 9 15 19 18 15 13 13 15 16 18 18 17 16 15 15 15
3 3 3 6 9 8 8 11 16 18 16 11 9 3 4 5 3 6 8 4 6 3 2 2 6 4 5 10 15 16 16 14 14 14 15 15 16 18 18 17 16 15 14 12
4 4 7 8 3 8 7 11 14 21 21 5 5 6 6 2 4 5 4 4 1 1 2 3 6 7 12 17 17 16 14 14 16 17 17 18 17 15 15 16 15 14 14 13

GFSNW_850_spd_147.txt.gz
Wind_Speed
32 33 30 30 25 21 22 16 7 17 28 10 6 10 13 7 13 11 6 5 7 10 8 13 11 9 8 6 9 8 4 3 8 13 7 4 8 14 13 9 15 12 7 11
34 34 34 33 29 27 26 9 11 19 30 8 6 9 16 9 13 14 9 8 5 1 7 4 7 8 6 6 7 2 6 6 7 12 10 7 8 7 4 8 9 14 11 9
35 35 38 37 33 31 28 9 4 6 18 17 18 19 16 12 16 13 8 6 6 7 6 5 9 9 6 7 5 6 1 7 9 9 11 7 9 11 11 12 8 14 19 22
39 37 40 41 36 36 34 15 9 14 7 12 9 15 11 17 13 14 15 8 11 10 8 10 9 9 9 9 9 6 4 8 10 12 13 14 16 16 16 18 18 19 23 22
43 39 43 45 42 38 40 16 11 20 13 29 18 11 13 21 22 16 15 13 15 12 12 11 10 13 10 10 12 10 9 6 4 8 13 16 19 14 18 22 22 23 24 25
38 41 41 50 46 44 18 24 24 9 19 19 14 12 11 17 12 8 13 15 11 11 14 14 1 3 3 3 8 9 9 6 8 13 10 10 14 8 16 18 17 18 18 21
43 40 43 45 48 49 27 22 21 14 8 13 20 24 21 12 17 10 11 11 12 5 7 6 4 7 9 12 12 12 9 10 9 10 11 15 10 6 8 12 15 18 17 12
41 42 43 52 47 49 36 25 20 14 7 13 12 11 18 14 12 9 10 8 3 8 8 5 5 7 9 15 18 17 16 12 8 10 10 14 12 16 14 7 16 17 8 9
41 38 48 42 46 50 42 25 19 15 11 9 12 13 15 7 10 9 7 8 10 8 6 5 9 7 10 6 5 13 17 15 11 10 12 10 5 2 4 8 14 7 3 6
42 43 47 49 48 45 43 33 30 15 7 7 20 13 16 13 11 8 13 14 8 7 6 7 8 10 6 8 10 7 11 13 14 12 12 12 10 4 3 7 3 3 7 10
41 38 46 51 46 46 45 29 27 19 6 10 13 12 21 16 19 8 15 9 8 9 8 7 7 6 8 11 12 11 12 10 10 12 15 20 4 4 7 8 9 11 14 18
38 35 46 50 46 43 42 28 26 24 14 7 9 10 11 15 14 7 17 3 15 11 8 7 6 6 6 11 10 13 12 11 9 8 5 2 4 8 16 21 19 17 16 15
39 41 45 43 46 45 41 29 25 19 10 8 8 11 14 13 9 10 8 9 5 5 5 3 3 5 4 9 11 13 12 14 9 8 6 12 13 17 20 19 13 14 13 12
44 39 40 40 39 39 36 33 27 13 12 4 8 9 14 13 10 8 9 3 5 4 7 6 4 5 5 8 8 8 8 5 9 14 15 17 19 14 11 12 11 11 10 9
53 48 50 45 39 31 29 24 20 15 5 6 9 10 15 12 12 11 8 8 6 7 6 5 6 10 6 10 11 10 16 13 11 12 18 18 15 15 15 12 12 11 7 8
42 38 38 35 31 30 25 10 13 18 9 6 4 5 13 15 17 16 13 12 11 11 6 7 11 16 12 7 12 19 27 29 31 26 29 25 17 14 14 13 10 8 8 11
38 37 36 35 29 17 8 6 10 21 14 4 4 6 8 15 14 14 16 15 12 12 7 9 17 14 11 11 15 22 25 24 24 26 24 22 24 18 12 12 9 10 10 11
34 33 30 29 23 16 11 10 14 19 7 2 3 4 8 15 9 7 15 12 13 8 12 12 12 16 18 10 17 25 28 28 29 31 31 31 27 13 12 12 12 12 12 13
31 30 29 24 12 7 9 11 16 13 4 5 5 7 5 16 13 9 8 8 4 9 6 12 10 11 11 10 19 25 27 25 24 21 20 17 15 14 14 14 14 14 13 15
30 27 7 5 10 12 16 8 5 4 4 6 6 13 5 15 16 10 7 5 4 6 8 11 7 15 34 36 39 36 33 29 24 22 18 15 18 18 17 17 15 14 15 16
22 7 4 11 20 11 6 6 7 10 5 9 14 18 10 14 10 7 9 4 4 4 6 6 4 8 16 26 30 31 31 31 31 25 19 16 18 17 17 16 16 15 16 18
15 13 19 20 7 5 5 6 5 6 7 11 16 21 17 13 9 6 5 4 4 6 2 3 4 9 14 11 12 12 13 16 19 22 17 14 14 16 16 17 18 17 18 21
18 8 6 6 5 6 6 9 4 5 6 12 20 12 14 6 8 4 4 5 6 3 3 4 6 11 4 7 9 9 8 7 9 13 14 14 13 14 17 21 21 21 22 20
5 7 6 4 6 4 4 7 8 9 12 19 21 17 8 7 6 4 4 5 3 4 5 8 6 5 6 7 6 4 4 7 14 15 17 18 18 17 18 17 18 19 20 20
5 6 5 7 5 11 10 8 13 13 18 19 14 10 7 6 4 4 5 4 6 6 11 7 3 4 6 5 2 4 7 12 14 15 16 14 15 17 19 18 18 18 18 18
4 4 2 8 12 7 7 10 12 14 17 14 6 3 2 6 4 7 8 7 6 3 4 1 2 5 4 3 5 7 11 12 13 13 14 15 16 18 19 19 18 16 15 15
3 2 4 8 12 12 11 16 17 17 18 6 4 6 6 4 5 6 5 7 6 3 1 3 5 4 5 9 11 11 11 11 11 13 15 16 16 16 17 17 17 15 15 13

GFSNW_850_spd_150.txt.gz
Wind_Speed
27 28 28 27 25 22 18 11 4 11 23 12 5 8 24 16 26 16 15 9 14 17 16 15 17 17 17 14 8 6 9 6 7 12 13 16 10 9 11 4 10 8 5 8
28 27 30 30 30 29 22 9 14 15 27 9 9 14 15 26 23 12 11 13 15 6 7 3 12 13 9 8 10 2 7 4 5 10 11 13 7 11 14 9 3 8 6 5
30 31 29 32 34 35 31 11 4 9 19 26 20 18 24 22 18 22 19 15 11 7 5 8 5 8 4 4 5 6 3 6 8 8 9 5 8 13 10 9 5 10 14 16
30 32 33 34 36 39 39 16 8 10 5 15 19 20 15 24 13 24 24 14 17 12 9 14 10 9 8 7 5 6 3 6 10 12 13 13 14 14 11 15 15 14 17 15
32 33 34 36 37 39 43 10 12 20 14 24 21 17 13 19 22 8 6 13 17 14 13 13 12 11 13 9 10 10 9 4 2 4 12 14 17 11 16 17 17 18 20 19
34 33 36 39 40 44 35 34 17 8 17 17 16 20 22 20 18 20 19 22 21 17 14 16 15 5 6 12 12 13 9 7 7 12 13 14 13 9 12 16 16 16 14 16
35 37 35 40 42 50 36 30 24 17 7 13 17 22 26 17 17 16 3 10 10 5 2 5 4 2 2 3 5 6 8 11 8 9 10 14 9 14 13 15 12 15 13 15
36 37 37 37 40 46 53 23 32 15 11 15 19 22 22 25 8 4 6 10 10 12 9 4 4 4 5 11 12 13 12 10 6 8 9 13 17 12 12 12 13 9 11 10
33 34 36 39 43 48 44 37 32 18 13 12 20 16 25 8 4 6 16 15 8 6 3 4 9 7 8 9 7 20 16 11 8 7 10 7 9 3 10 5 6 8 8 7
31 33 35 35 35 40 47 44 27 14 6 4 7 9 15 15 12 6 15 10 5 9 4 5 8 11 12 13 13 6 11 11 12 9 10 10 13 7 8 6 1 4 4 9
30 36 33 38 39 41 50 30 30 15 10 3 4 7 12 10 11 6 6 11 6 5 5 6 6 7 10 13 13 11 11 8 9 12 14 15 17 1 5 3 4 8 9 6
31 32 35 37 38 43 50 27 37 17 12 4 7 8 10 17 14 12 8 7 10 9 5 5 5 7 5 11 9 13 12 8 9 9 5 6 9 7 8 14 12 8 8 8
33 31 36 39 38 42 50 29 38 25 9 4 5 6 13 13 10 9 10 9 3 10 8 3 3 5 5 8 9 11 12 13 8 5 3 6 8 5 11 10 8 8 5 6
36 37 36 33 41 53 43 37 34 20 11 4 5 8 10 8 5 7 6 3 4 3 4 5 3 4 8 7 7 4 9 11 8 8 9 13 15 11 5 7 10 10 7 8
39 34 32 34 52 48 42 35 28 23 10 5 8 6 9 9 7 7 7 5 3 5 5 4 4 12 8 8 8 8 12 9 6 5 10 12 14 12 11 15 11 12 10 9
39 37 38 42 43 44 38 10 27 22 14 7 4 6 16 13 10 10 10 7 7 6 3 5 9 13 6 4 6 14 20 24 27 20 21 24 23 20 20 12 10 12 11 11
40 49 45 43 39 38 21 8 23 23 14 6 6 6 10 16 12 14 14 11 9 9 6 6 13 13 7 5 13 18 23 26 25 25 25 25 24 19 22 13 9 11 11 10
55 47 38 32 30 26 27 25 27 17 8 5 3 4 10 18 9 6 13 12 10 7 9 8 9 13 12 7 13 23 28 31 31 29 29 29 29 28 22 10 11 11 11 11
50 42 35 30 18 12 22 26 23 15 7 4 3 6 5 16 11 10 6 5 3 7 5 9 8 6 7 8 18 25 27 27 27 25 24 25 25 25 15 12 13 14 13 14
40 24 15 7 13 27 20 7 5 6 5 1 2 9 4 15 15 10 7 5 3 4 6 9 7 12 27 35 34 31 29 28 25 26 21 21 22 12 11 15 16 17 17 18
16 9 8 24 18 7 7 5 3 2 1 4 9 14 6 14 9 5 8 4 2 3 5 5 4 6 13 27 30 33 33 32 33 33 32 26 25 17 15 16 19 19 19 21
9 21 23 11 3 4 4 4 4 4 5 8 11 15 17 11 11 5 5 3 3 6 3 2 3 7 21 11 5 8 9 7 11 17 25 26 17 15 17 21 21 21 22 23
16 7 5 5 4 4 6 8 5 5 6 7 13 10 16 9 8 4 3 3 5 4 3 4 4 11 7 6 6 8 8 10 9 10 8 15 15 14 19 21 22 23 23 20
4 3 4 4 5 5 5 7 8 11 11 14 20 18 6 6 7 3 5 4 3 4 4 8 4 4 6 5 6 8 11 7 4 9 14 17 17 18 19 19 20 22 20 20
2 4 3 6 5 6 8 9 9 10 12 16 10 5 8 4 3 4 3 4 5 5 6 6 3 2 4 7 6 7 4 3 5 8 10 13 14 16 16 17 17 18 18 20
2 4 2 5 8 6 7 6 6 6 10 11 9 2 2 4 3 6 6 5 6 4 3 6 3 4 5 5 4 3 5 7 8 9 10 12 13 15 18 18 16 15 16 18
3 1 2 4 5 11 8 13 12 16 12 5 5 5 6 2 4 8 5 6 6 9 3 2 5 8 6 4 5 8 9 9 9 10 11 13 14 15 18 18 17 16 16 17

GFSNW_850_spd_153.txt.gz
Wind_Speed
22 22 22 23 24 21 22 15 2 7 22 11 12 16 9 18 15 12 8 10 13 15 9 7 5 7 8 12 9 6 2 4 4 7 1 9 8 9 6 3 3 2 4 6
24 24 23 24 24 27 29 8 11 12 23 8 10 15 18 14 10 14 3 4 11 11 5 4 2 7 6 13 4 6 5 1 1 5 4 4 4 4 2 2 4 6 4 6
26 25 26 24 26 28 32 8 5 10 15 15 9 14 17 16 13 22 22 9 8 7 8 5 1 3 4 1 2 7 2 4 6 6 3 1 2 3 1 4 1 5 5 10
26 27 25 28 27 28 34 12 4 10 6 13 13 9 8 20 21 21 11 13 20 10 5 11 11 6 4 7 5 3 3 2 1 3 6 6 7 6 3 2 4 4 5 7
25 27 28 28 30 28 40 14 6 9 3 11 16 16 11 20 16 17 13 19 8 11 12 6 7 10 4 6 3 5 2 2 3 3 4 7 12 6 7 9 9 9 14 10
28 27 29 29 30 32 31 18 25 9 8 10 12 18 24 21 12 20 23 11 6 7 13 11 13 18 19 5 7 7 6 5 4 3 5 8 9 9 11 10 9 7 8 9
29 29 29 31 31 35 38 26 22 14 4 8 15 13 25 22 22 5 4 7 8 8 21 13 8 7 4 2 9 10 6 4 3 3 4 5 6 8 9 11 12 12 10 6
29 28 28 30 33 32 35 28 28 15 6 11 12 19 16 26 27 8 8 12 8 6 4 5 2 5 3 3 4 4 4 3 2 3 5 7 13 11 4 6 7 3 8 8
29 29 29 30 31 33 34 37 29 22 8 10 17 8 25 11 6 3 5 6 12 12 2 4 6 5 6 6 4 9 7 5 4 1 3 7 7 12 6 5 2 7 13 6
28 28 28 29 31 29 30 34 33 19 13 22 18 8 8 13 6 3 4 5 7 12 3 4 2 2 2 5 6 3 4 2 9 5 5 6 6 15 6 5 6 7 7 8
28 28 26 27 29 28 27 35 33 33 14 11 9 7 9 14 15 4 9 3 2 2 3 4 3 3 5 3 4 4 7 4 5 4 5 11 10 7 7 5 11 10 5 7
27 26 26 27 28 28 25 28 32 40 14 9 8 17 13 11 13 25 23 8 8 7 2 2 2 2 1 7 7 7 6 6 4 7 5 6 4 7 3 3 2 5 7 6
27 28 28 26 26 27 29 36 23 28 12 6 10 9 9 11 12 14 9 8 5 9 2 1 2 1 2 3 4 4 4 8 6 3 6 9 17 6 6 4 3 2 4 5
29 30 30 28 26 25 32 37 34 33 8 4 4 11 7 5 9 11 10 12 8 3 4 2 0 0 4 1 2 2 3 6 2 2 2 4 7 5 10 5 1 2 4 8
32 32 30 31 25 30 34 34 42 31 8 4 6 10 9 7 10 9 4 5 5 1 2 1 2 4 3 5 1 3 4 4 3 4 4 5 7 6 5 5 8 11 11 11
35 35 34 28 32 39 32 15 30 33 19 6 3 6 12 8 9 9 7 6 3 2 1 2 4 10 6 2 3 8 17 20 22 12 21 21 22 22 23 23 20 14 13 15
36 31 29 33 30 41 32 12 37 30 17 6 3 2 7 12 9 8 8 7 2 3 3 4 4 3 2 2 5 8 17 20 24 23 22 21 19 15 13 13 12 12 16 15
24 31 36 48 42 33 24 35 35 22 10 7 3 2 4 14 5 3 9 4 4 4 4 4 3 7 8 4 8 23 30 32 27 27 26 27 25 26 24 21 11 16 19 15
53 48 48 42 33 17 26 30 25 17 9 6 3 5 4 15 6 5 4 5 1 5 3 4 4 3 5 6 17 22 25 25 24 23 23 22 24 23 24 27 21 24 17 16
43 36 17 8 16 29 27 14 6 4 5 2 2 7 2 13 8 3 4 3 2 2 5 6 3 6 25 31 30 31 31 33 28 25 22 23 24 24 13 13 21 22 16 19
22 16 20 21 21 15 7 4 3 1 2 1 2 6 6 12 4 3 7 3 2 2 4 5 3 3 9 26 29 29 30 31 30 30 33 31 29 24 18 19 21 19 18 21
26 31 24 11 6 6 5 1 1 0 3 6 5 6 6 7 8 3 4 3 1 5 3 2 2 4 20 19 11 8 10 4 9 15 17 22 33 32 28 24 22 22 20 20
17 9 6 4 4 5 5 5 2 1 3 7 12 2 7 5 5 4 3 3 4 3 1 3 4 11 4 7 3 6 8 11 11 12 14 14 16 21 24 23 23 24 21 20
8 5 5 2 2 1 2 2 3 3 6 5 3 5 4 4 3 3 4 5 0 3 2 4 2 4 4 6 7 8 12 10 4 1 7 13 19 21 21 21 22 21 16 17
5 4 2 1 2 2 2 5 5 6 8 9 1 2 8 2 3 3 3 1 4 5 4 3 7 3 1 3 4 5 6 2 2 5 7 9 11 14 18 18 16 11 14 19
4 2 3 5 4 1 3 6 8 7 9 9 4 0 3 5 3 4 6 3 5 4 2 7 4 3 6 6 5 4 2 4 5 6 7 9 12 14 15 14 13 14 14 17
3 2 1 3 1 0 2 5 8 5 4 2 2 3 5 3 3 4 4 4 3 2 5 1 5 8 8 7 5 5 7 6 7 8 9 11 12 12 14 16 15 14 15 17

GFSNW_850_spd_156.txt.gz
Wind_Speed
21 22 21 22 22 21 23 18 3 7 23 12 13 14 12 12 11 12 15 8 11 13 7 4 4 4 3 3 4 5 5 5 4 4 2 2 6 8 6 4 5 2 4 5
19 21 21 22 22 24 25 11 10 9 28 7 9 16 17 20 8 9 5 6 6 5 5 3 6 5 4 4 3 3 4 1 1 7 4 2 3 4 4 4 3 6 5 5
18 20 23 22 23 25 26 9 5 12 14 13 13 15 18 17 17 22 24 11 11 3 4 5 7 6 2 8 2 6 5 4 6 9 4 2 4 0 3 4 3 3 5 5
19 19 23 24 24 24 24 12 5 5 6 7 11 6 5 20 18 19 12 9 19 13 5 5 12 10 7 4 3 4 5 3 1 3 3 1 2 3 1 2 3 5 4 8
21 21 20 25 26 25 24 10 5 9 5 12 12 12 16 19 15 10 13 19 18 7 18 14 5 5 5 5 2 2 4 3 3 3 3 1 5 4 5 6 5 6 7 9
23 24 24 23 26 24 14 17 21 5 7 7 8 16 23 19 10 14 22 13 4 9 11 7 6 14 14 16 10 10 10 6 2 12 3 3 8 6 7 6 6 6 6 8
26 26 27 26 25 28 29 14 13 9 5 7 11 8 16 23 19 17 7 14 16 4 4 10 6 15 17 23 9 11 5 6 4 3 4 7 7 5 5 9 7 8 7 6
27 27 27 27 26 28 29 31 18 4 4 11 10 16 17 19 26 20 20 17 13 11 4 1 4 1 5 5 5 9 6 5 3 4 7 5 5 5 4 1 6 3 8 8
26 26 26 26 25 26 28 30 26 13 3 10 21 12 13 13 7 4 6 8 15 9 2 2 3 4 6 6 5 5 5 6 4 1 4 7 5 12 23 3 4 1 12 9
25 26 27 26 26 26 27 28 26 23 6 12 16 12 10 10 6 2 3 7 7 14 4 3 3 3 9 5 7 6 5 2 9 5 5 6 5 9 4 6 5 15 19 20
25 25 25 26 25 26 26 29 25 22 12 20 21 31 11 8 11 5 9 4 3 3 3 3 3 3 3 2 4 6 7 8 4 3 4 9 6 5 9 5 11 19 14 18
26 25 24 25 25 25 25 23 21 24 22 15 14 23 30 37 35 20 17 3 7 10 3 3 2 3 2 3 4 1 3 6 4 7 6 6 6 3 5 4 8 11 13 16
25 25 23 24 23 23 26 22 19 21 25 23 28 22 22 23 30 23 11 4 9 9 6 4 2 1 2 3 4 3 3 3 4 3 4 6 18 14 12 9 9 11 13 15
23 25 24 23 22 21 22 23 24 25 12 8 8 20 23 19 18 18 15 20 15 11 4 3 2 1 3 0 2 1 3 2 4 2 3 3 9 14 13 12 13 15 13 10
24 26 25 24 24 20 17 21 28 33 8 3 8 8 13 17 18 15 13 13 11 5 4 2 2 2 1 2 1 3 4 5 4 4 6 4 5 4 7 11 11 12 14 14
26 26 26 25 21 18 13 14 28 34 36 5 3 7 12 13 14 14 11 10 7 5 4 2 3 4 5 2 3 5 20 20 17 8 8 8 10 12 15 19 20 20 20 19
29 27 27 24 22 22 31 9 9 35 26 6 2 2 11 13 15 12 11 9 5 4 4 3 3 3 8 2 5 8 9 11 14 11 14 16 19 16 15 12 15 14 21 17
29 28 28 22 18 21 30 29 10 33 28 7 3 2 5 12 5 4 5 4 3 4 4 3 2 2 4 4 6 24 30 32 31 32 31 28 25 22 22 22 23 17 21 20
35 28 16 14 22 18 21 26 30 21 7 4 3 4 3 10 5 6 4 3 1 2 2 3 5 2 5 7 18 23 26 23 24 25 23 21 23 22 22 24 20 21 25 26
29 26 14 6 15 32 42 18 6 11 5 2 3 6 2 10 4 3 5 3 2 0 4 3 2 4 24 30 30 30 30 24 22 20 23 26 28 25 21 22 20 17 27 28
20 6 7 28 20 10 6 5 3 2 4 2 4 7 5 8 3 2 3 2 1 1 4 4 3 3 6 20 20 21 22 21 21 25 32 32 29 29 27 24 19 16 23 25
18 26 23 12 5 6 5 2 2 2 3 2 5 7 10 7 6 4 3 3 1 4 2 2 3 4 7 4 7 4 7 14 18 17 18 22 26 28 27 28 26 23 26 23
21 8 5 4 5 6 4 2 1 2 1 6 6 3 6 5 3 4 3 2 4 2 2 4 4 10 3 3 6 2 4 12 16 14 14 17 21 23 26 27 27 29 27 23
10 6 5 3 4 2 2 3 3 3 6 12 11 5 3 3 2 2 3 4 2 2 2 5 3 6 6 4 3 4 6 10 9 9 8 9 11 14 17 20 24 30 25 26
6 6 3 3 1 4 6 8 5 6 8 11 6 3 3 1 3 1 1 1 4 5 5 4 4 4 4 6 6 5 6 5 5 4 2 1 2 6 12 17 20 21 23 24
5 6 4 3 4 5 4 5 4 4 6 9 5 3 3 2 4 4 5 4 5 4 3 3 4 2 5 7 7 8 7 6 5 5 4 4 6 9 12 16 18 16 14 17
4 2 6 5 2 2 1 0 1 2 3 2 3 4 5 2 3 5 4 4 2 3 7 6 8 10 10 9 8 7 8 7 7 7 7 7 9 11 14 16 14 13 13 14

GFSNW_850_spd_159.txt.gz
Wind_Speed
22 26 23 22 22 22 22 21 4 9 19 9 7 12 13 17 17 8 15 5 6 7 5 5 2 6 4 15 4 3 7 5 7 15 4 4 2 5 5 4 4 2 4 7
15 19 23 22 22 24 24 10 10 13 27 7 8 12 12 20 9 2 5 6 8 8 10 7 6 8 11 9 6 4 2 2 1 5 3 3 2 3 4 4 4 9 5 6
16 16 20 23 22 24 22 9 3 11 23 16 8 14 17 15 17 19 20 4 5 3 3 5 5 3 5 2 10 5 2 1 4 9 4 4 3 4 5 5 3 7 7 6
17 17 18 23 23 20 22 10 5 7 4 9 13 7 5 18 17 14 4 8 20 17 6 11 14 15 12 10 8 1 5 5 10 9 4 4 4 5 6 5 6 9 8 7
19 19 18 19 23 21 18 7 4 7 1 6 14 10 9 18 8 9 8 14 11 6 13 19 19 13 9 6 3 5 4 4 8 9 10 4 5 7 7 5 4 6 7 9
21 21 20 19 19 22 14 14 9 5 6 4 7 13 16 13 8 13 21 17 8 12 18 21 12 13 10 7 2 4 4 5 4 5 5 2 6 7 9 5 6 7 9 9
24 23 22 21 21 24 26 20 7 8 8 7 7 6 12 17 13 15 6 19 15 22 17 6 6 8 11 15 15 16 4 5 3 3 5 4 6 6 8 13 13 10 4 5
24 23 23 22 23 25 27 27 24 6 3 9 12 15 14 11 13 19 22 30 29 20 10 3 5 3 3 8 15 18 14 7 3 4 9 3 3 4 6 7 7 6 7 6
26 23 23 24 26 25 26 28 24 16 6 5 14 5 10 6 6 5 8 21 17 18 4 4 5 4 1 3 4 12 13 14 7 2 4 7 5 11 12 4 10 5 8 10
27 25 25 27 26 25 26 25 24 18 11 22 12 5 5 10 5 2 2 6 7 18 5 6 4 4 3 3 4 5 6 6 14 6 4 6 5 5 4 4 5 7 20 22
27 25 24 24 25 25 25 27 24 23 17 23 20 14 15 16 11 8 5 2 4 2 7 3 3 3 5 4 5 4 5 6 3 3 4 9 7 1 6 6 1 16 22 26
27 26 25 24 24 25 24 26 26 25 24 14 12 28 36 28 27 14 13 4 4 8 1 2 2 2 1 2 2 2 3 3 4 7 6 6 12 8 5 5 7 14 23 21
26 26 26 25 23 22 26 26 21 20 21 25 32 36 41 31 32 29 13 7 10 9 4 3 2 3 4 4 4 4 3 2 3 2 4 6 15 13 12 12 12 13 12 11
26 25 25 25 22 23 25 26 23 23 6 5 17 21 28 38 38 36 36 33 23 8 12 6 3 2 4 3 2 4 4 2 2 4 3 3 4 12 15 15 15 16 18 20
25 22 22 24 21 22 23 24 26 27 21 4 8 21 24 19 23 32 34 27 22 15 4 2 3 2 1 1 1 3 3 3 3 4 6 4 4 4 4 14 12 13 11 13
23 22 21 22 20 21 18 9 25 28 29 10 4 6 9 14 16 29 28 22 18 9 6 2 3 3 2 1 2 5 16 20 16 8 11 9 4 8 10 10 16 15 17 20
23 21 20 20 21 20 22 9 7 10 27 7 4 4 7 15 12 12 13 12 6 4 5 3 4 5 7 2 4 6 16 13 14 13 9 7 11 9 9 9 13 15 14 16
21 19 17 18 19 17 25 32 17 8 26 6 4 3 5 12 5 4 5 4 4 2 3 3 3 2 2 3 7 23 28 27 24 26 28 28 26 23 21 20 19 21 24 22
19 16 15 16 16 19 31 26 25 28 13 5 3 1 2 13 5 5 4 4 1 3 2 3 3 1 4 8 13 20 25 18 19 21 20 19 20 20 19 19 21 21 23 25
19 18 8 8 16 23 11 9 10 16 9 2 2 5 3 10 5 2 3 1 2 2 4 4 2 4 21 27 28 30 30 29 24 20 22 24 23 25 26 26 25 24 19 20
26 11 8 9 21 16 8 3 2 4 1 6 6 7 4 7 3 2 1 2 1 1 3 3 2 3 5 10 12 15 19 16 16 19 23 24 26 30 29 28 25 25 22 21
27 11 15 9 5 3 3 3 3 3 4 5 5 7 7 6 5 4 2 2 1 3 1 3 3 4 12 10 8 5 5 8 12 13 16 17 18 18 21 24 26 26 23 19
21 4 4 4 2 2 3 4 0 0 4 8 9 3 5 5 4 5 3 3 3 0 2 3 4 9 9 6 8 8 9 11 10 12 12 14 16 16 19 23 24 23 24 25
5 6 3 2 2 1 3 2 3 3 8 20 18 6 3 4 3 2 4 3 2 1 2 5 3 8 6 8 9 8 10 12 12 12 12 12 13 14 15 14 17 22 23 29
4 5 3 2 2 4 4 5 9 10 12 11 8 6 5 3 3 0 3 2 4 5 4 3 8 7 7 8 9 9 10 13 12 11 9 8 9 11 11 8 3 10 19 24
5 7 4 3 4 5 6 10 9 6 8 10 6 3 3 2 4 3 6 4 6 4 3 6 8 7 7 8 9 12 12 12 12 10 8 7 6 5 2 2 5 15 20 19
4 1 3 3 3 3 2 4 5 5 6 2 2 4 6 2 2 3 4 5 4 6 9 3 7 12 13 14 12 12 12 12 12 11 7 6 5 5 6 7 9 9 10 12